Terminal Aerodrome Forecast
Issued by NWS

Home | Current Version | Previous Version | Text Only | Print | Product List | Glossary On
Versions: 1 2 3 4 5 6 7 8 9 10 11 12 13 14 15 16 17 18 19 20
000
FTUS41 KPBZ 290526 CCA
TAFDUJ
TAF COR
KDUJ 290526Z 2906/3006 10003KT 5SM -SHRA OVC050
      TEMPO 2911/2914 OVC025
     FM292000 33004KT P6SM VCTS OVC030CB
     FM300000 34004KT P6SM OVC015=

USA.gov is the U.S. government's official web portal to all federal, state and local government web resources and services.